STARLINK L (44245 NORAD) Tracking and Keplerian Element Data

This shows tracking and keplerian element data for the satellite.

Feedback or suggestion? Click here.




ElementValue
Catalog44245
NameSTARLINK L
Epoch Orbit333
Epoch Day165.28563516
Epoch Year2019
RAAN77.1944
Inclination53.005
Eccentricity0.0002345
Argument of Perigee100.5024
Mean Anonmoly259.6229
Mean Motion15.07131279
Decay Rate-0.0054098
L11 44245U 19029L 19165.28563516 -.00540980 00000-0 -37940-1 0 9990
L22 44245 53.0050 77.1944 0002345 100.5024 259.6229 15.07131279 3332

Live tracking and technical data element details for STARLINK L (NORAD 44245). STARLINK L can be tracked NOW for your location showing map with azimuth and elevation plus other details from your city location.

Track the satellite on the map from your city or location and see movement details for azimuth, elevation, latitude, longitude, range, height, and movement on the map or in text.







IsCatalogInMostPopularTable: catalog: 44245, numindb: 28
Update: records affected: 1



GetName: 44245 STARLINK L

Hit Count: updated at: Mon, 15 Jul 2019 22:31:42 GMT